Flag for Australia Weather past 2 weeks in Hobart, Tasmania, Australia

Now
68 °F

Clear.


Feels Like: 68 °F
Forecast: 48 / 65 °F
Wind: 10 mph from North

Location: Hobart Airport

Current Time: Apr 1, 2015 at 10:02:01 PM

Latest Report: Apr 1, 2015 at 9:00 PM


Visibility: 10 mi

Pressure: 29.71 "Hg

Humidity: 53%

Dew point: 50 °F

Location of HobartLocation

Historic Weather in Hobart — Graph

°F

Hobart temperature yesterday

Maximum temperature yesterday: 73 °F (at 2:00 PM)
Minimum temperature yesterday: 52 °F (at 6:00 AM)
Average temperature yesterday: 60 °F

Past Weeks' High & Low Weather Summary

 TemperatureHumidityPressure
High77 °F (Mar 22, 3:30 PM)100% (Mar 30, 12:00 AM)30.39 "Hg (Mar 30, 12:00 AM)
Low43 °F (Mar 25, 7:00 AM)30% (Mar 20, 12:30 PM)29.42 "Hg (Mar 19, 2:30 PM)
Average58 °F67%29.94 "Hg
* Reported Mar 17 8:00 PM — Apr 1 8:30 PM, Hobart, Weather by CustomWeather, © 2015

Note: Actual official high and low records may vary slightly from our data, if they occured in-between our weather recording intervals... More about our weather records

Advertising

Hobart weather history for previous 24 hours

 ConditionsComfort  
Time TempWeatherWind HumidityBarometerVisibility
8:30 PM
Wed, Apr 1
70 °FClear.7 mph46%29.71 "Hg10 mi
8:00 PM68 °FClear.2 mph56%29.71 "Hg10 mi
7:30 PM68 °FPassing clouds.5 mph56%29.71 "HgN/A
7:00 PM70 °FSunny.7 mph53%29.71 "Hg10 mi
6:30 PM72 °FSunny.9 mph47%29.71 "Hg10 mi
6:00 PM73 °FSunny.9 mph44%29.71 "Hg10 mi
5:30 PM73 °FSunny.10 mph44%29.71 "Hg10 mi
5:00 PM75 °FSunny.14 mph39%29.71 "Hg10 mi
4:30 PM75 °FSunny.13 mph41%29.74 "Hg10 mi
4:00 PM77 °FPartly sunny.14 mph39%29.74 "HgN/A
3:30 PM77 °FPartly sunny.12 mph36%29.74 "HgN/A
3:00 PM77 °FPartly sunny.9 mph36%29.77 "HgN/A
2:00 PM75 °FSunny.8 mph41%29.80 "Hg10 mi
1:30 PM72 °FSunny.10 mph44%29.83 "Hg10 mi
1:00 PM70 °FSunny.12 mph50%29.86 "Hg10 mi
12:30 PM68 °FSunny.10 mph53%29.86 "Hg10 mi
12:00 PM64 °FSunny.9 mph56%29.89 "Hg10 mi
11:30 AM64 °FSunny.13 mph52%29.89 "Hg10 mi
11:00 AM64 °FSunny.13 mph56%29.92 "Hg10 mi
10:30 AM63 °FSunny.17 mph59%29.92 "Hg10 mi
10:00 AM61 °FSunny.13 mph63%29.92 "Hg10 mi
9:30 AM61 °FSunny.14 mph63%29.95 "Hg10 mi
9:00 AM59 °FSunny.14 mph72%29.95 "Hg10 mi
8:00 AM55 °FSunny.7 mph82%29.95 "Hg10 mi
7:30 AM55 °FSunny.9 mph82%29.98 "Hg10 mi
7:00 AM54 °FClear.7 mph88%29.98 "Hg10 mi
6:30 AM54 °FClear.8 mph88%29.98 "Hg10 mi
6:00 AM54 °FClear.12 mph88%29.98 "Hg10 mi
5:00 AM54 °FClear.7 mph88%30.01 "Hg10 mi
4:30 AM54 °FClear.8 mph94%30.01 "Hg10 mi
4:00 AM55 °FClear.6 mph88%30.04 "Hg10 mi
3:30 AM54 °FClear.6 mph88%30.07 "Hg10 mi
3:00 AM55 °FClear.7 mph88%30.07 "Hg10 mi
2:00 AM52 °FClear.2 mph88%30.09 "Hg10 mi
1:30 AM52 °FClear.No wind94%30.09 "Hg10 mi
1:00 AM54 °FClear.2 mph94%30.12 "Hg10 mi
12:00 AM55 °FClear.3 mph88%30.12 "Hg10 mi
11:00 PM
Tue, Mar 31
54 °FClear.No wind88%30.15 "Hg10 mi
10:30 PM55 °FClear.No wind88%30.15 "Hg10 mi
10:00 PM55 °FClear.No wind88%30.15 "Hg10 mi
Weather by CustomWeather, © 2015

See weather overviewHow to use our weather pages